Theta_e
307 307 307 308 307 308 307 307 308 308 308 309 309 307 301 300 301 304 303 303 305 304 304 307 321 320 325 325 325 323 324 322 321 322 321 325 326 327 326 326 326 328 329 327 331
307 306 307 307 307 307 307 307 307 308 308 308 308 308 304 304 306 305 312 308 303 304 311 306 320 319 323 326 326 327 327 324 321 321 322 323 327 327 327 327 327 328 329 327 329
306 306 306 306 306 306 307 307 307 308 308 308 309 308 305 304 302 310 313 303 305 309 311 315 314 321 322 322 327 327 328 325 323 322 322 323 323 325 325 326 326 327 328 328 328
306 306 306 305 306 306 303 303 304 306 308 310 308 308 305 304 301 309 309 304 307 307 314 313 312 313 318 321 323 325 327 326 325 324 325 325 325 327 327 326 325 327 328 328 328
305 304 303 302 303 303 303 304 305 307 309 310 309 308 305 305 302 302 306 308 308 307 307 316 310 314 316 319 320 324 324 326 327 326 326 327 328 329 330 329 329 330 330 329 329
304 303 301 300 302 304 305 306 307 307 309 310 309 307 306 305 304 305 308 309 307 307 307 307 315 311 313 315 318 321 322 323 324 329 329 330 330 330 330 330 329 328 328 328 327
303 303 304 303 302 304 305 306 307 306 308 307 309 307 308 307 305 307 307 308 307 306 307 307 306 312 313 312 314 316 320 320 322 325 326 327 327 328 328 327 327 328 327 327 327
303 302 303 303 302 303 305 307 306 306 308 308 309 307 309 306 307 307 307 307 307 306 306 307 305 305 313 314 313 315 316 319 320 318 319 322 327 327 326 326 327 327 327 326 326
300 301 303 302 301 304 306 306 306 307 308 309 308 309 308 306 308 307 307 308 307 307 306 306 306 305 311 314 315 315 318 319 320 320 320 320 324 325 324 325 326 327 327 326 326
301 300 303 304 301 304 306 306 306 310 310 310 309 309 307 307 307 307 307 307 307 307 308 308 307 309 310 314 317 316 316 318 320 320 319 321 323 323 323 323 325 325 325 325 326
303 302 303 303 301 305 305 306 307 307 305 306 306 307 306 306 306 307 308 307 307 308 309 308 307 308 309 313 314 315 316 317 318 319 320 321 323 323 323 322 323 324 325 326 325
298 302 303 302 301 305 306 307 306 305 309 306 306 305 305 305 306 308 306 307 307 308 307 307 307 307 309 310 312 314 315 315 316 316 318 320 322 322 321 321 322 323 324 324 324
297 303 304 302 301 305 306 306 306 306 308 307 306 305 307 306 308 308 307 307 306 306 308 308 307 307 308 309 311 312 314 315 316 316 316 317 319 320 319 319 319 319 320 320 322
299 304 305 303 304 304 306 306 306 305 308 305 307 307 306 307 307 308 308 309 306 305 307 307 307 305 307 309 310 313 312 313 314 315 318 316 320 320 320 320 319 319 319 320 319
300 304 305 304 303 305 305 306 305 303 306 306 307 306 307 307 307 308 310 310 311 310 305 307 306 305 307 308 309 310 310 312 313 315 316 316 317 318 318 318 318 319 319 318 319
302 306 302 303 303 305 306 306 303 307 306 307 307 307 308 307 307 307 308 311 311 312 311 309 307 305 305 307 308 309 310 311 311 313 316 315 316 317 317 318 317 317 317 318 318
304 306 303 304 305 305 307 304 307 308 307 308 308 307 307 308 307 307 308 313 314 315 314 310 310 308 306 306 306 307 310 312 313 313 314 313 315 316 318 317 316 316 317 318 319
305 307 306 308 308 307 303 305 308 308 308 308 308 308 308 307 307 307 307 311 312 313 316 313 314 310 309 307 306 307 309 310 311 312 312 312 314 315 316 316 316 316 317 318 319
306 308 308 307 307 306 306 311 307 308 308 309 308 308 308 306 307 307 307 310 311 311 313 314 315 311 311 310 308 308 307 309 309 311 312 312 313 313 314 316 316 316 317 318 321
304 306 306 307 307 304 307 309 308 307 308 308 309 309 309 308 308 308 307 310 309 309 311 312 314 311 311 310 308 309 309 308 308 310 310 312 313 314 316 314 316 316 317 319 325
304 309 306 306 305 308 310 308 308 307 308 308 309 309 309 309 308 308 308 308 307 309 310 311 312 311 310 310 311 310 310 310 309 310 311 311 313 316 315 316 316 316 316 317 322
302 311 305 304 310 304 308 306 306 308 308 308 309 309 309 308 309 308 308 309 307 308 309 310 312 313 311 309 309 309 310 309 312 311 310 311 312 314 315 314 316 316 316 317 320
304 304 304 303 308 307 306 306 306 308 308 308 309 307 307 308 309 309 307 306 306 307 309 310 310 310 308 313 311 311 310 310 310 312 314 312 311 313 314 315 316 316 316 317 320
304 308 304 303 302 305 305 306 307 306 308 307 307 307 308 308 307 308 307 306 307 308 309 310 311 311 311 310 311 312 311 310 312 314 312 313 313 313 314 315 316 316 317 318 319
300 304 303 306 303 302 304 304 306 307 308 307 308 308 309 310 307 307 307 308 307 308 308 310 311 310 309 310 310 311 311 312 312 311 313 311 312 313 315 315 315 316 318 318 320
300 304 302 302 301 304 304 306 306 308 306 307 309 308 308 309 308 309 307 309 310 309 310 310 312 310 310 308 308 310 310 310 312 312 312 311 312 311 312 312 313 316 319 320 322
297 297 301 303 303 303 304 305 304 304 306 306 307 308 308 308 306 307 308 308 308 309 312 311 312 311 309 307 311 312 311 311 312 312 311 312 311 311 311 312 314 320 321 322 324
Wind_Speed
17 17 18 19 18 18 18 18 17 17 17 18 18 19 21 21 24 15 5 4 9 14 14 8 5 10 4 7 5 4 8 13 17 13 11 2 5 1 4 6 6 5 3 7 1
18 18 18 19 19 20 19 19 18 18 17 17 18 19 19 19 16 7 7 7 14 12 7 6 8 14 6 7 8 10 11 20 8 15 10 12 5 7 6 10 8 11 5 17 4
18 19 20 21 22 22 21 19 18 17 16 16 16 16 17 16 4 5 5 11 15 15 4 3 6 10 12 7 11 10 20 21 15 15 14 17 18 9 12 19 15 9 8 13 13
18 19 19 20 22 22 20 19 19 17 17 16 14 13 12 6 4 4 6 20 25 12 2 2 6 9 11 18 16 14 20 22 14 14 9 16 15 13 14 25 13 12 14 13 14
19 20 21 22 22 21 19 16 16 18 17 14 11 10 6 4 5 4 19 20 14 10 2 2 10 11 15 11 18 24 21 14 18 18 13 12 18 15 18 23 16 18 20 18 12
21 22 22 23 22 21 20 15 17 18 13 9 6 3 2 6 6 12 17 14 13 10 6 4 4 8 10 16 20 13 20 25 18 12 9 16 24 15 15 20 14 14 19 21 16
23 23 23 23 22 22 20 17 17 13 11 7 0 2 0 5 11 17 15 12 10 6 5 7 9 7 3 13 14 21 18 9 14 22 19 14 30 30 25 23 23 20 20 19 16
24 24 24 23 21 21 19 19 17 12 7 4 6 3 5 7 14 17 12 13 9 6 3 5 6 8 8 8 8 11 17 22 25 13 7 13 30 29 14 19 21 21 18 13 13
26 25 25 24 20 20 17 19 12 4 3 3 3 1 6 14 7 14 10 10 14 7 3 3 5 6 6 12 9 14 21 25 26 22 14 16 31 24 16 18 18 17 16 14 14
27 27 25 24 19 18 17 12 5 4 4 2 1 3 3 11 16 18 18 14 8 10 3 4 6 9 13 16 21 22 27 25 24 10 22 19 34 21 17 14 18 17 17 16 17
27 27 25 24 17 12 16 2 3 1 1 5 7 5 11 9 18 8 13 6 4 6 9 5 9 21 25 21 24 12 16 23 18 13 14 23 30 26 22 22 24 24 22 19 19
29 27 26 24 15 5 8 4 5 1 8 6 11 10 20 10 7 9 2 3 5 15 6 5 18 18 14 15 20 24 21 11 10 5 9 19 26 19 13 18 19 21 21 21 20
32 27 26 21 9 2 3 6 6 5 3 8 5 5 7 6 6 7 3 2 8 13 13 13 14 8 16 19 18 20 25 20 9 4 10 11 20 21 17 19 20 20 20 19 19
35 28 23 17 2 5 0 6 6 7 2 3 2 1 6 9 5 12 3 4 4 11 14 11 15 14 17 19 20 21 14 19 18 11 13 4 13 17 17 19 18 17 18 18 17
34 28 18 5 3 1 3 5 3 4 4 6 2 5 15 4 9 2 2 4 11 15 7 16 10 10 18 16 15 17 7 11 11 16 15 20 11 22 17 21 23 20 18 18 22
33 20 6 3 3 1 7 7 4 3 3 2 5 10 14 7 13 6 10 2 5 8 13 18 15 7 8 11 14 10 18 18 10 10 14 18 13 21 18 21 20 15 15 16 16
26 9 5 3 2 6 9 2 2 3 5 4 7 11 15 7 12 10 13 7 5 6 6 9 18 16 12 12 6 10 12 9 11 11 17 11 12 21 11 11 7 5 9 13 13
18 4 4 6 9 9 1 1 2 1 4 7 7 16 4 9 8 12 9 7 2 1 5 3 5 6 3 13 13 14 14 10 17 13 14 13 13 9 17 18 17 13 7 10 11
12 3 4 9 8 10 1 2 1 2 4 8 14 4 3 5 6 9 10 7 4 5 6 5 3 9 6 9 12 10 11 14 4 1 8 11 22 18 14 11 8 5 7 15 17
8 2 4 8 8 3 1 1 2 2 5 5 5 3 5 8 9 11 6 3 9 8 3 4 7 5 9 9 5 6 7 10 6 7 9 8 17 9 3 13 2 8 12 16 18
4 1 9 7 3 4 2 2 4 4 4 3 4 8 8 11 6 8 6 8 7 9 8 7 3 2 4 4 6 3 6 4 6 10 7 6 4 6 18 6 7 8 12 18 17
6 0 11 7 2 1 1 5 4 4 2 5 5 6 6 6 7 7 7 6 8 8 9 4 5 6 7 5 4 9 6 2 6 18 12 8 5 7 10 7 12 14 18 19 16
4 3 7 5 2 2 4 4 4 4 5 3 4 1 5 5 6 7 9 8 12 8 4 6 1 6 7 5 5 1 4 4 6 5 15 15 9 8 5 13 14 18 20 19 18
3 4 3 4 1 2 5 3 4 6 7 1 9 8 5 8 9 10 12 8 6 7 12 10 5 9 9 8 9 11 11 10 7 9 14 19 19 24 21 21 23 21 19 19 17
4 2 2 4 2 6 3 5 7 4 3 6 4 6 5 6 17 17 12 12 8 6 13 6 10 11 14 17 18 18 19 18 17 17 14 16 19 22 20 18 20 19 20 20 19
2 3 2 4 7 6 3 3 8 5 4 7 5 11 13 14 17 23 21 17 8 6 4 3 6 10 17 15 18 19 19 19 21 21 23 22 23 21 24 23 22 19 20 19 18
1 1 1 3 4 4 2 3 7 14 9 12 12 15 16 17 15 19 18 18 9 4 6 5 5 3 6 6 7 11 18 21 19 18 17 21 19 18 25 21 19 18 19 20 20
Wind_Direction
358 356 353 350 348 344 343 341 339 338 337 336 336 333 332 337 326 326 294 293 302 300 287 310 228 201 183 194 191 156 231 243 233 217 226 226 238 280 299 273 307 333 60 344 44
356 353 349 345 343 339 337 337 336 334 333 332 329 327 328 335 322 294 57 31 7 331 285 229 217 175 205 207 189 202 227 234 228 229 230 236 224 299 298 296 284 308 236 2 63
353 350 347 344 341 337 335 333 331 331 329 328 326 325 333 333 278 149 29 5 7 354 256 214 239 207 214 205 198 205 235 235 230 228 231 246 258 239 272 276 270 271 300 331 326
350 346 343 340 337 335 336 338 335 336 328 324 324 324 331 334 17 136 319 333 333 359 359 222 209 206 224 216 214 238 228 241 247 240 230 237 252 252 249 256 272 278 288 283 279
348 346 345 344 344 347 347 344 344 337 325 323 324 330 352 347 268 333 335 342 3 13 22 286 225 225 223 220 228 235 239 241 241 253 251 265 246 248 254 263 264 273 275 269 261
349 348 347 348 352 354 355 356 351 342 337 323 318 339 25 340 317 323 328 344 6 35 358 255 243 244 267 245 224 236 242 245 245 236 234 251 265 240 250 253 251 255 263 267 266
348 347 343 343 347 351 353 353 346 349 352 358 217 163 192 246 322 317 316 307 313 340 341 266 247 249 278 253 263 252 255 238 236 238 247 252 279 245 245 257 260 255 257 262 254
346 346 342 341 345 349 349 348 339 330 331 14 139 164 257 296 319 329 322 303 290 276 268 281 241 272 239 287 260 242 236 244 237 210 224 186 259 265 222 242 251 264 262 256 249
349 346 341 340 344 347 348 342 333 341 40 110 135 230 287 321 314 324 324 288 297 260 232 166 151 219 234 227 250 225 235 227 239 212 199 193 254 257 256 240 247 248 263 275 282
346 342 337 334 338 343 350 337 60 94 86 129 124 264 254 325 321 309 302 276 265 280 136 191 191 216 220 207 219 226 228 236 237 219 214 217 249 251 266 268 268 262 264 269 271
338 337 334 333 338 349 4 48 356 202 39 271 295 283 287 285 299 270 301 276 234 257 266 212 222 221 223 228 247 259 264 245 259 231 209 221 244 250 247 259 262 269 275 276 278
339 335 332 332 337 3 28 76 102 98 309 287 262 251 264 264 282 310 185 248 237 242 186 222 234 251 250 249 244 246 255 266 252 245 235 244 250 253 249 255 258 265 270 275 280
343 333 330 330 331 50 64 130 152 328 270 298 248 253 284 198 280 314 184 297 268 264 234 240 264 251 248 239 244 237 240 240 250 291 249 274 267 254 246 248 253 258 263 265 265
344 331 326 330 85 348 152 171 310 175 274 281 270 70 331 302 263 309 220 274 236 271 248 245 255 238 238 238 229 242 236 240 239 253 243 202 275 259 252 252 252 259 263 260 268
344 332 323 297 285 202 121 303 311 182 308 345 352 330 326 300 321 344 336 216 286 277 257 243 274 232 225 234 226 235 206 203 216 228 243 240 263 261 254 257 257 256 256 267 263
349 346 2 122 177 78 327 319 163 224 261 351 330 340 346 327 343 307 335 260 278 283 261 258 252 280 287 213 219 227 215 237 251 246 236 232 231 268 248 258 263 265 260 273 278
350 0 51 109 33 337 341 133 241 232 348 345 326 331 325 316 330 334 329 354 360 311 278 269 239 242 254 256 220 212 189 191 216 217 237 215 220 245 263 264 271 223 323 306 288
351 32 52 20 336 333 41 148 242 46 308 326 325 316 295 355 339 331 316 317 106 241 285 325 265 182 332 230 240 213 199 206 219 216 231 209 230 241 230 267 272 265 314 330 328
355 51 62 3 356 343 304 79 303 315 333 314 319 307 319 355 335 330 317 300 333 358 335 313 240 286 286 318 228 198 213 223 278 157 227 197 243 269 258 275 257 293 329 351 343
350 11 36 340 337 352 52 293 266 311 329 315 297 304 307 327 323 339 307 321 341 351 328 303 298 165 294 330 192 245 216 194 210 206 208 207 239 232 197 209 18 35 4 343 347
16 116 0 352 6 48 66 286 291 296 332 308 289 296 293 315 306 318 279 309 4 341 340 328 273 291 288 194 279 238 233 245 244 238 244 241 218 218 224 97 47 14 352 352 346
347 19 356 7 45 45 351 314 304 296 313 298 270 310 306 331 303 289 259 285 332 333 325 326 299 289 270 270 262 251 285 257 250 215 239 279 278 114 119 69 8 351 347 344 344
353 295 357 6 44 2 321 294 274 293 321 314 294 239 272 284 294 258 270 282 310 294 299 352 308 312 312 158 128 202 197 236 254 262 249 239 229 189 262 324 340 335 338 336 337
343 342 359 46 62 36 338 320 311 290 293 277 270 275 250 274 265 275 274 290 282 293 298 313 260 254 266 294 305 292 289 283 271 250 247 243 258 269 284 308 319 328 330 326 325
16 40 15 326 6 327 296 299 288 311 290 299 252 244 282 295 304 279 281 292 267 269 295 271 256 252 255 265 276 276 277 277 261 254 251 261 253 265 285 298 311 313 314 315 318
22 1 8 295 296 295 274 264 295 314 301 291 252 290 301 284 287 289 291 280 260 229 227 248 264 252 268 267 260 266 263 262 258 257 256 259 262 269 278 280 281 296 301 303 306
57 178 225 289 313 310 278 309 306 325 284 246 285 299 292 293 295 284 279 275 248 220 217 218 238 240 263 285 301 276 254 246 255 256 257 257 264 261 268 272 277 293 294 294 297